Regional Weather Roundup
Issued by NWS Charleston, SC

Current Version | Previous Version | Text Only | Print | Product List | Glossary Off
Versions: 1 2 3 4 5 6 7 8 9 10 11 12 13 14 15 16 17 18 19 20 21 22 23 24 25 26 27 28 29 30 31 32 33 34 35 36 37 38 39 40 41 42 43 44 45 46 47 48 49 50
000 ASUS42 KCHS 131326 RWRCHS REGIONAL WEATHER ROUNDUP NATIONAL WEATHER SERVICE CHARLESTON SC 800 AM EST WED DEC 13 2017 NOTE: "FAIR" INDICATES FEW OR NO CLOUDS BELOW 12,000 FEET WITH NO SIGNIFICANT WEATHER AND/OR OBSTRUCTIONS TO VISIBILITY. NOT ALL STATIONS ARE QUALITY CONTROLLED. USE DATA WITH CAUTION... ESPECIALLY DEWPOINT OBSERVATIONS. SCZ027-030-031-034>040-042>050-131400- ...SOUTHEAST SOUTH CAROLINA... CITY SKY/WX TMP DP RH WIND PRES REMARKS N CHARLESTON CLEAR 35 24 64 NW7 30.05R WCI 29 WATERFRONT PRK N/A 37 25 61 NW6 29.88R WCI 32 JOHNS ISLAND FAIR 37 25 60 NW8 30.06R WCI 31 PINOPOLIS N/A 39 18 41 N15 29.95R WCI 31 MONCKS CORNER FAIR 34 21 60 CALM 30.05R SUMMERVILLE FAIR 32 25 74 W3 30.07R BEAUFORT MCAS CLEAR 37 23 56 NW7 30.07R WCI 32 BEAUFORT ARPT FAIR 37 21 52 NW9 30.06R WCI 31 HILTON HEAD IS CLEAR 37 19 48 N14 30.07R WCI 29 WALTERBORO SUNNY 34 25 69 NW3 30.08R ALLENDALE FAIR 34 16 47 CALM 30.06R ...SOUTHERN MIDLANDS AND PEE DEE... CITY SKY/WX TMP DP RH WIND PRES REMARKS GEORGETOWN FAIR 32 23 69 NW3 30.05R KINGSTREE FAIR 28 23 80 CALM 30.05R ORANGEBURG CLEAR 32 20 61 NW3 30.05R BARNWELL N/A 34 18 51 W5 30.05R WCI 30 AIKEN FAIR 32 16 51 W3 30.06R MANNING FAIR 30 21 69 MISG 30.05R COLUMBIA CLEAR 30 23 75 W7 30.04R WCI 23 SUMTER CLEAR 32 10 40 NW9 30.01R WCI 24 FLORENCE CLEAR 26 21 81 CALM 30.03R MYRTLE BEACH CLEAR 32 20 61 NW7 30.04R WCI 26 N MYRTLE BEACH PTCLDY 31 18 58 NW6 30.01R WCI 25 $$ GAZ063-065-086>088-099>101-113>116-118-119-134>141-150-131400- ...SOUTHEAST GEORGIA... CITY SKY/WX TMP DP RH WIND PRES REMARKS SAVANNAH ARPT CLEAR 36 19 50 NW8 30.08R WCI 30 HUNTER AAF CLEAR 36 19 49 NW9 30.06R WCI 29 FORT STEWART CLEAR 37 17 44 NW7 30.06R WCI 32 STATESBORO CLEAR 36 12 37 NW6 30.08R WCI 31 SYLVANIA SUNNY 34 21 59 NW5 30.07R WCI 30 CLAXTON FAIR 36 19 50 W3 30.08S ...CSRA...CENTRAL AND FAR SOUTHEAST GEORGIA... CITY SKY/WX TMP DP RH WIND PRES REMARKS THOMSON CLEAR 30 12 46 N5 30.10R WCI 26 AUGUSTA-BUSH CLEAR 29 17 61 CALM 30.06R AUGUSTA-DANIEL CLEAR 33 13 43 W7 30.04R WCI 27 SWAINSBORO FAIR 34 18 51 NW8 30.07R WCI 27 VIDALIA CLEAR 36 23 60 NW3 30.08R EASTMAN FAIR 35 10 34 NW6 30.12S WCI 30 HAZLEHURST FAIR 37 9 31 CALM 30.09R ALMA PTCLDY 37 20 50 NW10 30.08R WCI 30 WAYCROSS PTCLDY 39 21 48 NW6 30.10R WCI 34 JESUP FAIR 39 23 52 CALM 30.09 BAXLEY FAIR 34 21 60 NW7 30.09R WCI 28 BRUNSWICK CLEAR 37 28 70 W5 30.10R WCI 34 SAINT SIMONS PTCLDY 40 28 62 NW6 30.08R WCI 36 $$ SCZ027-028-034-036>038-045-046-048>050-GAZ119-141-131400- ...LAKE AND SUPPLEMENTAL COASTAL OBSERVATIONS... STATION/POSITION TIME TEMP WIND PRES WAVE SWELL AIR SEA DIR/SP/G HT/PER HT/PER/DIR (UTC) (F) (DEG/KT/KT) (MB) (FT/S) (FT/S/D) WINYAH BAY 1245 32 320/ 2 1017.0R LAKE MURRAY 1220 33 280/ 4/ 7 1015.9 ACE BASIN NERRS 1245 35 300/ 1 1017.0S FORT PULASKI 1300 38 54 320/ 13/ 17 1018.6 SAPELO ISLAND NOT AVBL $$ ANZ835-935-AMZ111-154-330-350-352-354-370-450-454-472-131400- ...C-MAN AND BUOY OBSERVATIONS... STATION/POSITION TIME TEMP WIND PRES WAVE SWELL AIR SEA DIR/SP/G HT/PER HT/PER/DIR (UTC) (F) (DEG/KT/KT) (MB) (FT/S) (FT/S/D) BUOY 41004 1310 45 73 330/ 17/ 25 1016.7 BUOY 41008 1250 44 59 330/ 17/ 23 1017.8R 4/ 5 FOLLY BEACH CMAN 1200 37 300/ 6/ 10 1016.8R CAPERS NEARSHORE NOT AVBL FRIPP NEARSHORE 1308 39 56 300/ 17/ 27 1016.8R STATION/POSITION TIME TEMP WIND PRES WAVE SWELL AIR SEA DIR/SP/G HT/PER HT/PER/DIR (UTC) (F) (DEG/KT/KT) (MB) (FT/S) (FT/S/D) 5E ST. MARYS GA 1300 62 N/A 3/ 4 FRYING PAN BUOY 1310 41 62 340/ 21/ 25 1015.3 BUOY 41025 1310 37 74 310/ 27/ 35 1013.4 CAPE LOOKOUT NC 1200 320/ 19/ 23 1014.4R BUOY 41002 1250 57 75 310/ 25/ 31 1011.7R 14/10 10/300/10 BUOY 41010 NOT AVBL ST AUGUSTINE FL 1300 44 61 290/ 5/ 7 1019.8R $$

USA.gov is the U.S. government's official web portal to all federal, state and local government web resources and services.